Location: Eschertshofen
(49.3064°N, 11.5756°E)
Time: 18:28:31
(UTC+00:00)

Cosmos 2279 Rocket - Visible Passes

Search period start: 16 January 2021 00:00
Search period end: 26 January 2021 00:00
Orbit: 965 x 978 km, 82.9° (Epoch: 15 January)

Date Brightness Start Highest point End Pass type
(mag) Time Alt. Az. Time Alt. Az. Time Alt. Az.
16 Jan 6.0 05:30:28 10° SE 05:35:45 30° E 05:41:02 10° NNE visible
16 Jan 4.7 16:20:15 10° N 16:25:47 31° ENE 16:31:15 10° SE visible
16 Jan 4.8 18:05:19 10° NNW 18:11:22 53° W 18:17:24 10° SSW visible
17 Jan 5.1 05:53:43 10° SSE 05:59:40 49° E 06:05:39 10° NNE visible
17 Jan 4.2 16:44:09 10° N 16:50:16 49° ENE 16:56:18 10° SSE visible
17 Jan 5.7 18:29:53 10° NNW 18:35:19 32° W 18:40:44 10° SW visible
18 Jan 6.8 04:36:15 10° ESE 04:39:29 15° ENE 04:42:44 10° NE visible
18 Jan 4.2 06:17:30 10° S 06:23:44 80° E 06:30:02 10° N visible
18 Jan 3.9 17:08:16 10° N 17:14:35 80° E 17:20:51 10° SSE visible
18 Jan 6.5 18:54:50 10° NW 18:59:06 20° W 19:03:23 10° WSW visible
19 Jan 6.3 04:58:19 10° SE 05:03:11 25° E 05:08:05 10° NNE visible
19 Jan 4.5 17:32:32 10° NNW 17:38:44 64° W 17:44:54 10° S visible
19 Jan 7.0 19:21:01 10° WNW 19:22:45 11° WNW 19:24:28 10° W visible
20 Jan 5.4 05:21:19 10° SSE 05:27:03 40° E 05:32:50 10° NNE visible
20 Jan 5.4 17:57:01 10° NNW 18:02:45 39° W 18:08:27 10° SSW visible
21 Jan 7.0 04:04:57 10° E 04:07:02 12° ENE 04:09:05 10° NE visible
21 Jan 4.5 05:44:54 10° S 05:51:03 67° E 05:57:17 10° NNE visible
21 Jan 4.0 16:35:35 10° N 16:41:52 67° ENE 16:48:04 10° SSE visible
21 Jan 6.3 18:21:46 10° NNW 18:26:36 24° W 18:31:23 10° SW visible
22 Jan 6.5 04:26:17 10° SE 04:30:40 20° E 04:35:04 10° NE visible
22 Jan 4.0 06:09:00 10° SSW 06:15:14 77° W 06:21:33 10° N visible
22 Jan 4.2 16:59:47 10° NNW 17:06:05 77° W 17:12:19 10° S visible
22 Jan 6.9 18:47:13 10° NW 18:50:17 14° WNW 18:53:20 10° WSW visible
23 Jan 5.7 04:48:59 10° SSE 04:54:28 33° E 04:59:58 10° NNE visible
23 Jan 5.1 17:24:10 10° NNW 17:30:08 47° W 17:36:04 10° SSW visible
24 Jan 4.8 05:12:22 10° SSE 05:18:25 55° E 05:24:31 10° NNE visible
24 Jan 6.0 17:48:48 10° NNW 17:54:02 29° W 17:59:15 10° SW visible
25 Jan 6.7 03:54:26 10° ESE 03:58:10 17° ENE 04:01:54 10° NE visible
25 Jan 4.0 05:36:17 10° S 05:42:32 89° E 05:48:50 10° N visible
25 Jan 4.1 16:27:04 10° N 16:33:23 88° E 16:39:39 10° S visible
25 Jan 6.8 18:13:54 10° NW 18:17:47 17° WNW 18:21:41 10° WSW visible
